DW4479 Weather Reports


Display with metric or nautical units.
time (UTC)temp
F
wind
direction
speed
MPH
gust
MPH
rain 1hr
in
rain 24hr
in
rain mn
in
humidity
%
barometer
mb
20181119223041 45 20 6.0 0.0 0.00 0.00 0.04 71 1014.0
20181119221558 45 265 7.0 0.0 0.00 0.00 0.04 70 1014.1
20181119220030 45 127 6.0 0.0 0.00 0.00 0.04 70 1014.3
20181119214610 45 306 6.0 0.0 0.00 0.00 0.04 72 1014.2
20181119213027 45 187 6.0 0.0 0.00 0.00 0.04 73 1014.4
20181119211535 45 355 7.0 0.0 0.00 0.00 0.04 74 1014.3
20181119210042 44 33 5.0 0.0 0.00 0.00 0.04 81 1014.6
20181119204541 43 49 5.0 0.0 0.00 0.00 0.04 80 1014.8
20181119203041 45 119 7.0 0.0 0.00 0.00 0.04 79 1014.7
20181119201515 45 316 5.0 0.0 0.00 0.00 0.03 74 1014.7
20181119200023 46 89 6.0 0.0 0.00 0.00 0.03 72 1015.0
20181119194514 46 355 6.0 0.0 0.00 0.00 0.03 72 1015.2
20181119193008 46 347 6.0 0.0 0.00 0.00 0.03 75 1015.2
20181119191518 45 355 6.0 0.0 0.00 0.00 0.03 74 1015.3
20181119190005 46 314 6.0 0.0 0.00 0.00 0.03 73 1015.2
20181119184506 46 290 5.0 0.0 0.00 0.00 0.03 71 1015.3
20181119183217 46 325 5.0 0.0 0.00 0.00 0.03 72 1015.3
20181119181705 45 277 4.0 0.0 0.00 0.00 0.03 76 1015.4
20181119180125 44 298 4.0 0.0 0.00 0.00 0.03 82 1015.3
20181119174706 45 198 5.0 0.0 0.00 0.00 0.03 78 1015.7
20181119173214 46 291 4.0 0.0 0.00 0.00 0.02 75 1015.5
20181119171726 47 319 4.0 0.0 0.00 0.00 0.02 76 1015.6
20181119170132 47 24 4.0 0.0 0.00 0.00 0.02 78 1015.6
20181119164746 47 355 4.0 0.0 0.00 0.00 0.02 78 1015.8
20181119163118 47 51 4.0 0.0 0.00 0.00 0.02 80 1015.9
20181119161711 47 298 4.0 0.0 0.00 0.00 0.02 78 1016.0
20181119160124 47 30 4.0 0.0 0.00 0.00 0.02 76 1016.2
20181119154620 47 40 4.0 0.0 0.00 0.00 0.02 77 1016.3
20181119153107 47 355 4.0 0.0 0.00 0.00 0.02 77 1016.5
20181119151606 47 19 4.0 0.0 0.00 0.00 0.02 80 1016.7
20181119150102 47 5 5.0 0.0 0.00 0.00 0.02 79 1016.9
20181119144650 47 42 4.0 0.0 0.00 0.00 0.02 81 1016.9
20181119143113 47 355 3.0 0.0 0.00 0.00 0.02 81 1017.1
20181119141617 46 15 3.0 0.0 0.00 0.00 0.02 80 1017.3
20181119140102 47 280 4.0 0.0 0.00 0.00 0.02 80 1017.5
20181119134540 47 350 3.0 0.0 0.00 0.00 0.02 79 1017.7
20181119133100 47 298 3.0 0.0 0.00 0.00 0.02 79 1018.0
20181119131536 47 315 4.0 0.0 0.00 0.00 0.02 79 1018.2
20181119130105 47 5 3.0 0.0 0.00 0.00 0.02 80 1018.4
20181119124534 47 15 3.0 0.0 0.00 0.00 0.02 78 1018.6
20181119123050 48 345 3.0 0.0 0.00 0.00 0.02 78 1019.0
20181119121523 48 9 2.0 0.0 0.00 0.00 0.02 76 1019.1
20181119120036 48 351 3.0 0.0 0.00 0.00 0.02 77 1019.3
20181119114525 48 313 2.0 0.0 0.00 0.00 0.02 79 1019.6
20181119113015 46 321 3.0 0.0 0.00 0.00 0.02 84 1019.7
20181119111513 47 309 3.0 0.0 0.00 0.00 0.02 83 1020.0
20181119110035 46 292 4.0 0.0 0.00 0.00 0.02 81 1020.2
20181119104512 46 355 2.0 0.0 0.00 0.00 0.01 80 1020.6
20181119103007 46 310 3.0 0.0 0.00 0.00 0.01 81 1020.7
20181119101504 47 341 3.0 0.0 0.00 0.00 0.01 80 1020.9
20181119100002 46 336 3.0 0.0 0.00 0.00 0.01 82 1020.9
20181119094641 46 302 3.0 0.0 0.00 0.00 0.01 85 1021.0
20181119093305 45 331 3.0 0.0 0.00 0.00 0.01 84 1021.1
20181119091707 47 320 3.0 0.0 0.00 0.00 0.00 79 1021.3
20181119090140 47 63 2.0 0.0 0.00 0.00 0.00 79 1021.3
20181119084708 46 290 3.0 0.0 0.00 0.00 0.00 78 1021.3
20181119083110 47 329 3.0 0.0 0.00 0.00 0.00 76 1021.3
20181119081620 47 5 3.0 0.0 0.00 0.00 0.00 80 1021.4
20181119080239 47 317 3.0 0.0 0.00 0.00 0.00 75 1021.5
20181119074558 47 325 4.0 0.0 0.00 0.00 0.00 75 1021.5
20181119073135 48 315 4.0 0.0 0.00 0.00 0.00 73 1021.6
20181119071636 48 321 3.0 0.0 0.00 0.00 0.00 75 1021.5
20181119070057 48 15 3.0 0.0 0.00 0.00 0.00 74 1021.7
20181119064610 48 342 3.0 0.0 0.00 0.00 0.00 77 1021.5
20181119063049 48 296 3.0 0.0 0.00 0.00 0.00 76 1021.7
20181119061600 48 322 3.0 0.0 0.00 0.00 0.00 74 1021.7
20181119060049 48 316 2.0 0.0 0.00 0.00 0.00 75 1022.0
20181119054559 47 294 3.0 0.0 0.00 0.00 0.00 73 1022.1
20181119053053 47 360 2.0 0.0 0.00 0.00 0.00 74 1022.1
20181119051627 47 44 2.0 0.0 0.00 0.00 0.00 73 1022.2
20181119050041 47 310 3.0 0.0 0.00 0.00 0.00 77 1022.4
20181119044654 47 303 4.0 0.0 0.00 0.00 0.00 75 1022.4
20181119043031 47 100 3.0 0.0 0.00 0.00 0.00 73 1022.5
20181119041628 47 304 4.0 0.0 0.00 0.00 0.00 75 1022.5
20181119040041 47 61 3.0 0.0 0.00 0.00 0.00 77 1022.6
20181119034612 47 35 3.0 0.0 0.00 0.00 0.00 77 1022.7
20181119033056 47 292 3.0 0.0 0.00 0.00 0.00 76 1022.6
20181119031605 47 42 4.0 0.0 0.00 0.00 0.00 73 1022.8
20181119030035 47 78 3.0 0.0 0.00 0.00 0.00 74 1022.8
20181119024518 47 94 3.0 0.0 0.00 0.00 0.00 75 1022.9
20181119023037 47 285 3.0 0.0 0.00 0.00 0.00 74 1023.0
20181119021519 47 88 2.0 0.0 0.00 0.00 0.00 76 1023.1
20181119020020 47 292 2.0 0.0 0.00 0.00 0.00 76 1023.3
20181119014606 47 104 2.0 0.0 0.00 0.00 0.00 75 1023.6
20181119013010 47 320 3.0 0.0 0.00 0.00 0.00 75 1023.8
20181119011526 46 323 4.0 0.0 0.00 0.00 0.00 75 1023.9
20181119010016 46 150 3.0 0.0 0.00 0.00 0.00 78 1023.8
20181119004738 47 82 4.0 0.0 0.00 0.00 0.00 79 1023.9
20181119003126 47 118 3.0 0.0 0.00 0.00 0.00 82 1024.0
20181119001713 47 10 3.0 0.0 0.00 0.00 0.00 84 1024.1
20181119000205 46 37 4.0 0.0 0.00 0.00 0.00 84 1024.1
20181118234647 46 169 3.0 0.0 0.00 0.00 0.00 83 1024.4
20181118233212 46 5 4.0 0.0 0.00 0.00 0.00 83 1024.5
20181118231613 46 340 4.0 0.0 0.00 0.00 0.00 82 1024.5
20181118230203 46 331 4.0 0.0 0.00 0.00 0.00 81 1024.5
20181118224644 47 323 4.0 0.0 0.00 0.00 0.00 82 1024.6